This is the latest recevied weather packets stored in our database for station/object WB4ZUT. If no packets are shown the sender has not sent any weather packets the latest 10 day(s).
| Time | Temp. | Humidity | Pressure | Rain* | Wind** | Luminosity | Snow |
|---|---|---|---|---|---|---|---|
| 1778104795 | 16.11° C | 59% | 1014.5 hPa | 0 mm | - | 203 W/m² | - |
| 1778104491 | 16.11° C | 58% | 1014.7 hPa | 0 mm | - | 208 W/m² | - |
| 1778104187 | 16.67° C | 58% | 1014.4 hPa | 0 mm | - | 225 W/m² | - |
| 1778103884 | 16.11° C | 60% | 1014.5 hPa | 0 mm | - | 304 W/m² | - |
| 1778103582 | 16.67° C | 58% | 1014.2 hPa | 0 mm | - | 242 W/m² | - |
| 1778103280 | 16.67° C | 61% | 1014.2 hPa | 0 mm | - | 276 W/m² | - |
| 1778102977 | 16.67° C | 58% | 1014.3 hPa | 0 mm | - | 339 W/m² | - |
| 1778102673 | 16.67° C | 59% | 1014.6 hPa | 0 mm | - | 265 W/m² | - |
| 1778102372 | 16.67° C | 58% | 1014.6 hPa | 0 mm | - | 290 W/m² | - |
| 1778102069 | 17.22° C | 57% | 1014.4 hPa | 0 mm | - | 399 W/m² | - |
| 1778101766 | 17.22° C | 59% | 1014.5 hPa | 0 mm | - | 437 W/m² | - |
| 1778101462 | 17.78° C | 59% | 1014.1 hPa | 0 mm | - | 459 W/m² | - |
| 1778101160 | 17.22° C | 59% | 1014.2 hPa | 0 mm | - | 418 W/m² | - |
| 1778100855 | 16.67° C | 56% | 1014.4 hPa | 0 mm | - | 499 W/m² | - |
| 1778100552 | 16.67° C | 55% | 1014.4 hPa | 0 mm | - | 527 W/m² | - |
| 1778100250 | 16.67° C | 55% | 1014.9 hPa | 0 mm | - | 315 W/m² | - |
| 1778099947 | 17.22° C | 55% | 1014.9 hPa | 0 mm | - | 417 W/m² | - |
| 1778099644 | 17.22° C | 57% | 1015 hPa | 0 mm | - | 457 W/m² | - |
| 1778099341 | 17.22° C | 56% | 1015.1 hPa | 0 mm | - | 445 W/m² | - |
| 1778099038 | 16.67° C | 54% | 1015 hPa | 0 mm | - | 544 W/m² | - |
| 1778098735 | 16.67° C | 57% | 1014.8 hPa | 0 mm | - | 596 W/m² | - |
| 1778098432 | 17.22° C | 57% | 1015 hPa | 0 mm | - | 541 W/m² | - |
| 1778098129 | 17.22° C | 59% | 1014.7 hPa | 0 mm | - | 533 W/m² | - |
| 1778097825 | 17.78° C | 59% | 1014.8 hPa | 0 mm | - | 551 W/m² | - |
| 1778097521 | 16.67° C | 60% | 1014.7 hPa | 0 mm | - | 855 W/m² | - |
* Rain latest hour (hover to see other rain measurements)
** Current wind speed in m/s (hover to see current wind gust speed)